DUCHIFAT-3

Last updated on Thu Nov 21 2024 00:03:02 GMT+0000 (Coordinated Universal Time)

1 44854U 19089C 24324.93984923 .00034597 00000+0 12838-2 0 9995 2 44854 36.9504 177.1844 0012258 325.1591 34.8356 15.26646079271993
UTC large
Height (km)
Speed (km/s)
/
Latitude / Longitude
Inclination (degrees)
Orbital Period (minutes)
Azimuth
Elevation
Range (km)
Doppler Factor

Next 0 passes for location: London (51.5072 / 0.1276)

Sorry there are no passes over London.